Location: Montreal
(45.5000°N, 73.5830°W)
Time: 17:26:48
(UTC-05:00)

Amateur Radio Satellites - All Passes

Search period start: 14 December 2017 16:56
Search period end: 15 December 2017 16:56
Location: Montreal, 45.5000°N, 73.5830°W

Satellite Date Start Highest point End Downlink Frequencies (MHz)
Time Altitude Azimuth
MOZHAYETS 4 14 Dec 17:01:09 17:02:45 12° 302° (WNW) 17:04:21
PCSat 14 Dec 17:07:41 17:09:39 12° 102° (ESE) 17:11:37 145.827
XW-2C 14 Dec 17:10:35 17:14:22 85° 257° (WSW) 17:18:13 145.795 - 145.815
KKS-1 14 Dec 17:12:39 17:17:04 63° 102° (ESE) 17:21:26 437.445
SO-50 14 Dec 17:14:21 17:17:45 21° 324° (NW) 17:21:12 436.795
SEEDS 14 Dec 17:18:02 17:21:05 20° 64° (ENE) 17:24:08 437.485
BEESAT 14 Dec 17:20:15 17:22:13 12° 303° (WNW) 17:24:10 436.000
ISS 14 Dec 17:24:00 17:27:17 74° 211° (SSW) 17:30:33 437.550
HO-68 14 Dec 17:24:31 17:31:30 57° 66° (ENE) 17:38:30 435.675
RS-15 14 Dec 17:26:25 17:37:44 39° 332° (NNW) 17:48:49 29.354- 29.394
AAUSAT CUBESAT 2 14 Dec 17:38:11 17:40:28 14° 62° (ENE) 17:42:45 437.432
CUTE 1.7 + AOD 2 14 Dec 17:39:28 17:43:35 50° 72° (ENE) 17:47:44 437.475
LilacSat-2 14 Dec 17:47:26 17:50:47 29° 264° (W) 17:54:11 437.200
AO-73 14 Dec 17:52:22 17:53:53 12° 60° (ENE) 17:55:24 145.935
STARS 14 Dec 17:56:00 18:00:22 72° 103° (ESE) 18:04:42 437.465
O/OREOS (USA 219) 14 Dec 18:02:13 18:06:44 80° 249° (WSW) 18:11:13 437.305
XW-2D 14 Dec 18:02:28 18:05:23 21° 267° (W) 18:08:20 145.860 - 145.880
NUDT-PHONESAT 14 Dec 18:07:03 18:10:12 26° 265° (W) 18:13:23 437.300
KAITUO 1B 14 Dec 18:10:47 18:13:49 23° 266° (W) 18:16:53 145.475/437.950
XW-2B 14 Dec 18:19:11 18:21:24 15° 269° (W) 18:23:38 145.730 - 145.750
nSIGHT-1 14 Dec 18:19:26 18:21:49 19° 224° (SW) 18:24:11 .
UWE-3 14 Dec 18:26:20 18:30:23 53° 73° (ENE) 18:34:25 435.000/436.395/437.385
CUBEBUG 2 14 Dec 18:26:22 18:30:36 85° 257° (WSW) 18:34:46 437.445
CUTE-I 14 Dec 18:26:51 18:31:14 25° 267° (W) 18:35:39 437.470
XW-2F 14 Dec 18:32:25 18:33:41 11° 271° (W) 18:34:56 145.980 - 146.000
FO-29 14 Dec 18:40:08 18:42:20 12° 80° (E) 18:44:25 435.910
STRAND 1 14 Dec 18:41:58 18:46:20 28° 95° (E) 18:50:40 437.568
XW-2A 14 Dec 18:42:20 18:45:38 64° 75° (ENE) 18:48:59 145.665 - 145.685
PCSat 14 Dec 18:46:43 18:52:08 81° 119° (ESE) 18:57:35 145.827
KKS-1 14 Dec 18:50:28 18:53:07 16° 299° (WNW) 18:55:46 437.445
ZACube-1 14 Dec 18:51:31 18:55:32 52° 73° (ENE) 18:59:35 437.345
SEEDS 14 Dec 18:52:25 18:56:27 43° 262° (W) 19:00:32 437.485
ISS 14 Dec 19:02:11 19:03:15 11° 228° (SW) 19:04:18 437.550
Oscar 11 14 Dec 19:11:04 19:15:14 51° 72° (ENE) 19:19:27 .
AAUSAT CUBESAT 2 14 Dec 19:11:18 19:15:25 61° 259° (W) 19:19:35 437.432
HO-68 14 Dec 19:13:19 19:19:33 31° 265° (W) 19:25:50 435.675
CUTE 1.7 + AOD 2 14 Dec 19:17:00 19:19:42 16° 270° (W) 19:22:25 437.475
AO-73 14 Dec 19:25:24 19:29:31 75° 259° (W) 19:33:41 145.935
STARS 14 Dec 19:33:58 19:36:08 14° 301° (WNW) 19:38:18 437.465
RS-15 14 Dec 19:44:14 19:54:36 30° 7° (N) 20:04:35 29.354- 29.394
UWE-3 14 Dec 20:04:55 20:07:10 14° 270° (W) 20:09:26 435.000/436.395/437.385
BEESAT 3 14 Dec 20:08:51 20:12:49 75° 124° (SE) 20:16:49 437.485
DELFI C3 14 Dec 20:13:18 20:17:09 48° 72° (ENE) 20:21:01 145.870
STRAND 1 14 Dec 20:20:52 20:25:36 40° 293° (WNW) 20:30:19 437.568
FO-29 14 Dec 20:21:51 20:28:54 71° 102° (ESE) 20:35:03 435.910
Max Valier Satellite 14 Dec 20:23:36 20:27:02 40° 72° (ENE) 20:30:30 145.860
ZACube-1 14 Dec 20:29:52 20:32:09 14° 270° (W) 20:34:28 437.345
PCSat 14 Dec 20:32:00 20:36:11 22° 321° (NW) 20:40:22 145.827
AO-85 14 Dec 20:47:34 20:49:36 14° 109° (ESE) 20:51:40 145.980
BEESAT 2 14 Dec 20:48:51 20:52:46 55° 122° (ESE) 20:56:45 435.950
Oscar 11 14 Dec 20:48:56 20:51:41 16° 270° (W) 20:54:26 .
EO-88 14 Dec 20:51:22 20:54:57 61° 74° (ENE) 20:58:34 145.990 - 145.960
ESTCUBE 1 14 Dec 21:19:18 21:22:24 18° 62° (ENE) 21:25:31 437.505/2401.250
LO-87 14 Dec 21:22:56 21:25:28 19° 66° (ENE) 21:27:59 145.935 - 145.965
TIGRISAT 14 Dec 21:32:24 21:36:37 49° 100° (E) 21:40:54 435.000
UNISAT 6 14 Dec 21:35:40 21:39:57 58° 101° (E) 21:44:19 437.425
BEESAT 3 14 Dec 21:48:07 21:50:48 17° 323° (NW) 21:53:31 437.485
DELFI C3 14 Dec 21:49:47 21:52:09 15° 269° (W) 21:54:31 145.870
SPROUT 14 Dec 21:58:31 21:59:39 11° 59° (ENE) 22:00:47 437.525
Max Valier Satellite 14 Dec 21:58:55 22:01:02 15° 269° (W) 22:03:11 145.860
RS-15 14 Dec 21:58:57 22:10:38 53° 39° (NE) 22:21:39 29.354- 29.394
FO-29 14 Dec 22:07:42 22:13:12 25° 304° (NW) 22:18:15 435.910
PRISM 14 Dec 22:13:31 22:17:26 41° 99° (E) 22:21:17 437.425
SO-50 14 Dec 22:21:30 22:25:09 22° 37° (NE) 22:28:49 436.795
AO-85 14 Dec 22:25:30 22:29:24 62° 309° (NW) 22:33:34 145.980
BEESAT 2 14 Dec 22:27:41 22:30:48 21° 320° (NW) 22:33:56 435.950
VELOX 1 14 Dec 22:51:45 22:55:22 25° 65° (ENE) 22:59:00 145.980
ESTCUBE 1 14 Dec 22:54:23 22:58:47 54° 260° (W) 23:03:16 437.505/2401.250
LO-87 14 Dec 22:55:30 22:58:40 30° 263° (W) 23:01:50 145.935 - 145.965
QB50P2 14 Dec 23:01:34 23:04:46 21° 93° (E) 23:07:57 145.880/145.840
DUCHIFAT 1 14 Dec 23:06:54 23:09:33 16° 91° (E) 23:12:11 145.980
TIGRISAT 14 Dec 23:09:59 23:12:58 19° 297° (WNW) 23:16:00 435.000
FALCONSAT 3 14 Dec 23:12:13 23:14:30 16° 172° (S) 23:16:46 435.103
UNISAT 6 14 Dec 23:13:36 23:16:15 16° 298° (WNW) 23:18:56 437.425
AIST 2D 14 Dec 23:24:13 23:27:46 71° 284° (WNW) 23:31:17 435.315
SPROUT 14 Dec 23:30:36 23:34:51 87° 256° (WSW) 23:39:08 437.525
NANOSAT C BR1 14 Dec 23:32:31 23:36:23 34° 97° (E) 23:40:12 145.865
UKube-1 14 Dec 23:34:21 23:34:58 10° 57° (ENE) 23:35:34 .
DX 1 14 Dec 23:47:19 23:50:39 22° 64° (ENE) 23:53:59 434.975-435.025
EO-79 14 Dec 23:47:45 23:51:55 57° 101° (E) 23:56:04 145.935-145.965
BUGSAT 1 14 Dec 23:48:59 23:49:12 10° 89° (E) 23:49:25 437.445
PRISM 14 Dec 23:49:28 23:52:25 19° 296° (WNW) 23:55:21 437.425
SO-50 15 Dec 00:01:24 00:06:03 70° 237° (WSW) 00:10:45 436.795
50 SAT 15 Dec 00:03:25 00:05:58 23° 69° (ENE) 00:08:32 437.505
AO-85 15 Dec 00:08:51 00:10:44 13° 331° (NNW) 00:12:41 145.980
POLYITAN 1 15 Dec 00:10:46 00:15:00 81° 285° (WNW) 00:19:14 437.675
RS-15 15 Dec 00:11:57 00:23:22 59° 246° (WSW) 00:34:11 29.354- 29.394
VELOX 1 15 Dec 00:27:30 00:31:38 37° 262° (W) 00:35:47 145.980
QB50P2 15 Dec 00:36:45 00:40:41 38° 290° (WNW) 00:44:36 145.880/145.840
Oscar 19 15 Dec 00:40:30 00:44:47 25° 93° (E) 00:49:02 437.125/150
DUCHIFAT 1 15 Dec 00:41:26 00:45:29 49° 288° (WNW) 00:49:31 145.980
FALCONSAT 3 15 Dec 00:50:31 00:52:51 16° 187° (S) 00:55:10 435.103
MOZHAYETS 4 15 Dec 00:50:50 00:53:21 15° 60° (ENE) 00:55:53
UKube-1 15 Dec 01:05:55 01:10:14 83° 78° (ENE) 01:14:35 .
NANOSAT C BR1 15 Dec 01:08:32 01:11:54 24° 294° (WNW) 01:15:15 145.865
BEESAT 15 Dec 01:12:54 01:16:09 19° 61° (ENE) 01:19:24 436.000
BUGSAT 1 15 Dec 01:21:00 01:25:02 74° 285° (WNW) 01:29:05 437.445
DX 1 15 Dec 01:22:25 01:26:34 42° 261° (W) 01:30:45 434.975-435.025
Gurwin Techsat 1B 15 Dec 01:23:34 01:28:40 44° 98° (E) 01:33:44 435.225
EO-79 15 Dec 01:24:43 01:27:13 16° 298° (WNW) 01:29:43 145.935-145.965
50 SAT 15 Dec 01:35:30 01:37:52 19° 265° (W) 01:40:14 437.505
ITUPSAT 1 15 Dec 01:40:16 01:44:25 31° 66° (ENE) 01:48:36 437.325
PCSat 15 Dec 01:49:42 01:53:52 22° 39° (NE) 01:58:03 145.827
AO-91 15 Dec 01:52:40 01:56:09 58° 286° (WNW) 01:59:28 145.960
YUBILEINY 15 Dec 02:08:47 02:16:56 44° 87° (E) 02:25:07 435.215
CUBESAT XI-V 15 Dec 02:13:21 02:17:05 24° 65° (ENE) 02:20:50 437.345
Oscar 19 15 Dec 02:19:20 02:24:17 46° 291° (WNW) 02:29:14 437.125/150
M-CUBED/EXP-1 PRIME 15 Dec 02:24:18 02:25:31 11° 92° (E) 02:26:43 437.505
MOZHAYETS 4 15 Dec 02:25:24 02:29:56 71° 258° (WSW) 02:34:31
RS-15 15 Dec 02:29:05 02:32:50 12° 269° (W) 02:36:34 29.354- 29.394
AO-7 15 Dec 02:41:53 02:49:27 36° 97° (E) 02:56:56 .
UKube-1 15 Dec 02:46:34 02:46:49 10° 272° (W) 02:47:05 .
BEESAT 3 15 Dec 02:46:57 02:49:12 15° 34° (NE) 02:51:27 437.485
BEESAT 15 Dec 02:48:47 02:53:28 59° 259° (WSW) 02:58:11 436.000
Gurwin Techsat 1B 15 Dec 03:03:56 03:08:24 28° 297° (WNW) 03:12:50 435.225
ITUPSAT 1 15 Dec 03:17:57 03:22:11 32° 263° (W) 03:26:28 437.325
STARS 15 Dec 03:22:06 03:23:02 11° 57° (ENE) 03:23:57 437.465
BEESAT 2 15 Dec 03:27:52 03:29:46 13° 32° (NNE) 03:31:40 435.950
ITAMSAT 1 15 Dec 03:31:54 03:37:00 53° 101° (E) 03:42:02 435.822/435.867
PCSat 15 Dec 03:32:29 03:37:55 81° 241° (WSW) 03:43:20 145.827
CUBESAT XI-V 15 Dec 03:49:48 03:54:12 41° 262° (W) 03:58:41 437.345
M-CUBED/EXP-1 PRIME 15 Dec 03:55:57 04:00:32 84° 292° (WNW) 04:04:49 437.505
YUBILEINY 15 Dec 04:05:19 04:13:41 46° 288° (WNW) 04:22:10 435.215
KKS-1 15 Dec 04:12:22 04:16:49 76° 75° (ENE) 04:21:18 437.445
BEESAT 3 15 Dec 04:23:23 04:27:21 87° 50° (NE) 04:31:13 437.485
DOVE 4 15 Dec 04:30:46 04:35:04 41° 97° (E) 04:39:07 437.250
AO-7 15 Dec 04:34:23 04:42:33 59° 297° (WNW) 04:50:41 .
STARS 15 Dec 04:54:13 04:58:37 84° 73° (ENE) 05:03:02 437.465
FO-29 15 Dec 04:55:58 04:58:16 11° 45° (NE) 05:00:33 435.910
CUTE-I 15 Dec 05:01:50 05:04:56 15° 89° (E) 05:08:01 437.470
BEESAT 2 15 Dec 05:04:13 05:08:16 67° 53° (NE) 05:12:14 435.950
ITAMSAT 1 15 Dec 05:12:06 05:16:06 23° 299° (WNW) 05:20:05 435.822/435.867
AO-85 15 Dec 05:13:37 05:17:52 33° 44° (NE) 05:22:23 145.980
LilacSat-2 15 Dec 05:18:06 05:21:19 24° 94° (E) 05:24:31 437.200
PCSat 15 Dec 05:18:26 05:20:25 12° 258° (WSW) 05:22:23 145.827
XW-2D 15 Dec 05:31:37 05:35:08 32° 97° (E) 05:38:36 145.860 - 145.880
M-CUBED/EXP-1 PRIME 15 Dec 05:32:11 05:34:06 13° 309° (NW) 05:35:59 437.505
NUDT-PHONESAT 15 Dec 05:34:26 05:37:29 23° 94° (E) 05:40:31 437.300
KAITUO 1B 15 Dec 05:38:49 05:42:07 27° 96° (E) 05:45:23 145.475/437.950
NO-84 15 Dec 05:41:03 05:43:08 17° 129° (SE) 05:45:19 435.350 FM
XW-2B 15 Dec 05:47:21 05:51:06 47° 99° (E) 05:54:49 145.730 - 145.750
KKS-1 15 Dec 05:52:17 05:53:54 12° 271° (W) 05:55:31 437.445
XW-2F 15 Dec 05:58:58 06:02:47 62° 101° (E) 06:06:35 145.980 - 146.000
STRAND 1 15 Dec 05:59:43 06:04:39 50° 70° (ENE) 06:09:36 437.568
DOVE 4 15 Dec 06:09:02 06:12:28 22° 297° (WNW) 06:15:46 437.250
YUBILEINY 15 Dec 06:12:27 06:13:22 10° 314° (NW) 06:14:18 435.215
XW-2C 15 Dec 06:14:43 06:18:35 78° 286° (WNW) 06:22:26 145.795 - 145.815
CUBEBUG 2 15 Dec 06:15:25 06:18:12 17° 91° (E) 06:20:59 437.445
AO-7 15 Dec 06:28:54 06:33:36 17° 319° (NW) 06:38:20 .
SEEDS 15 Dec 06:33:57 06:37:33 26° 94° (E) 06:41:05 437.485
FO-29 15 Dec 06:34:08 06:41:26 45° 65° (ENE) 06:48:43 435.910
STARS 15 Dec 06:35:03 06:35:32 10° 272° (W) 06:36:01 437.465
HO-68 15 Dec 06:37:11 06:44:05 48° 99° (E) 06:50:56 435.675
CUTE-I 15 Dec 06:40:14 06:45:34 76° 287° (WNW) 06:50:52 437.470
BEESAT 2 15 Dec 06:43:31 06:45:26 13° 250° (WSW) 06:47:21 435.950
AAUSAT CUBESAT 2 15 Dec 06:51:51 06:54:41 18° 91° (E) 06:57:29 437.432
LilacSat-2 15 Dec 06:52:13 06:55:33 28° 292° (WNW) 06:58:52 437.200
AO-85 15 Dec 06:53:51 06:58:24 43° 241° (WSW) 07:03:14 145.980
CUTE 1.7 + AOD 2 15 Dec 06:57:27 07:01:47 75° 103° (ESE) 07:06:03 437.475
XW-2D 15 Dec 07:06:10 07:09:06 21° 294° (WNW) 07:12:00 145.860 - 145.880
NUDT-PHONESAT 15 Dec 07:08:04 07:11:17 27° 291° (WNW) 07:14:29 437.300
AO-73 15 Dec 07:11:28 07:14:29 18° 92° (E) 07:17:31 145.935
KAITUO 1B 15 Dec 07:12:54 07:15:59 24° 292° (WNW) 07:19:02 145.475/437.950
NO-84 15 Dec 07:16:59 07:20:01 53° 329° (NNW) 07:23:18 435.350 FM
XW-2B 15 Dec 07:22:36 07:24:53 15° 296° (WNW) 07:27:10 145.730 - 145.750
XW-2A 15 Dec 07:33:58 07:37:18 48° 100° (E) 07:40:37 145.665 - 145.685
XW-2F 15 Dec 07:34:48 07:36:23 12° 298° (WNW) 07:37:58 145.980 - 146.000
STRAND 1 15 Dec 07:40:08 07:44:06 22° 267° (W) 07:48:04 437.568
UWE-3 15 Dec 07:49:15 07:53:35 89° 264° (W) 07:58:00 435.000/436.395/437.385
CUBEBUG 2 15 Dec 07:50:57 07:55:04 49° 288° (WNW) 07:59:16 437.445
SEEDS 15 Dec 08:09:27 08:13:14 31° 291° (WNW) 08:16:57 437.485
ZACube-1 15 Dec 08:12:59 08:17:22 87° 104° (ESE) 08:21:48 437.345
O/OREOS (USA 219) 15 Dec 08:16:17 08:20:52 79° 113° (ESE) 08:25:28 437.305
FO-29 15 Dec 08:18:58 08:26:21 46° 264° (W) 08:33:51 435.910
CUTE-I 15 Dec 08:22:30 08:24:43 13° 306° (NW) 08:26:56 437.470
HO-68 15 Dec 08:25:11 08:31:41 39° 299° (WNW) 08:38:08 435.675
AAUSAT CUBESAT 2 15 Dec 08:26:21 08:30:20 44° 289° (WNW) 08:34:16 437.432
Oscar 11 15 Dec 08:31:42 08:36:06 80° 104° (ESE) 08:40:27 .
TIGRISAT 15 Dec 08:33:01 08:37:12 54° 73° (ENE) 08:41:22 435.000
CUTE 1.7 + AOD 2 15 Dec 08:35:06 08:37:00 13° 300° (WNW) 08:38:53 437.475
UNISAT 6 15 Dec 08:36:23 08:40:39 65° 74° (ENE) 08:44:53 437.425
AO-73 15 Dec 08:46:45 08:50:56 48° 288° (WNW) 08:55:12 145.935
NO-84 15 Dec 08:55:26 08:57:53 19° 350° (N) 09:00:28 435.350 FM
PRISM 15 Dec 09:04:22 09:08:15 40° 70° (ENE) 09:12:09 437.425
XW-2A 15 Dec 09:08:11 09:09:35 12° 296° (WNW) 09:10:58 145.665 - 145.685
DELFI C3 15 Dec 09:22:11 09:26:06 57° 100° (E) 09:29:57 145.870
Max Valier Satellite 15 Dec 09:24:30 09:28:03 41° 98° (E) 09:31:35 145.860
UWE-3 15 Dec 09:28:20 09:29:23 11° 301° (WNW) 09:30:26 435.000/436.395/437.385
POLYITAN 1 15 Dec 09:32:44 09:33:59 11° 59° (ENE) 09:35:14 437.675
EO-88 15 Dec 09:50:56 09:54:35 58° 101° (E) 09:58:12 145.990 - 145.960
ZACube-1 15 Dec 09:51:33 09:53:00 11° 300° (WNW) 09:54:27 437.345
QB50P2 15 Dec 09:56:16 09:59:27 21° 65° (ENE) 10:02:37 145.880/145.840
O/OREOS (USA 219) 15 Dec 09:58:10 10:00:53 15° 312° (NW) 10:03:36 437.305
AIST 2D 15 Dec 09:59:53 10:03:18 52° 74° (ENE) 10:06:46 435.315
DUCHIFAT 1 15 Dec 10:00:55 10:03:34 17° 63° (ENE) 10:06:14 145.980
Oscar 11 15 Dec 10:09:46 10:11:36 12° 300° (WNW) 10:13:25 .
TIGRISAT 15 Dec 10:11:47 10:14:14 15° 270° (W) 10:16:40 435.000
UNISAT 6 15 Dec 10:15:57 10:17:48 12° 271° (W) 10:19:39 437.425
LO-87 15 Dec 10:20:17 10:22:33 16° 92° (E) 10:24:50 145.935 - 145.965
NANOSAT C BR1 15 Dec 10:26:25 10:30:11 33° 69° (ENE) 10:33:57 145.865
NO-84 15 Dec 10:33:27 10:36:07 20° 12° (NNE) 10:38:55 435.350 FM
PRISM 15 Dec 10:40:37 10:43:40 20° 267° (W) 10:46:44 437.425
BUGSAT 1 15 Dec 10:40:40 10:41:36 11° 59° (ENE) 10:42:32 437.445
EO-79 15 Dec 10:41:49 10:45:55 55° 73° (ENE) 10:50:01 145.935-145.965
ESTCUBE 1 15 Dec 10:44:44 10:48:36 27° 95° (E) 10:52:26 437.505/2401.250
nSIGHT-1 15 Dec 10:57:00 10:59:56 34° 142° (SE) 11:02:55 .
DELFI C3 15 Dec 10:58:21 11:00:22 14° 298° (WNW) 11:02:22 145.870
Max Valier Satellite 15 Dec 10:59:11 11:01:33 16° 295° (WNW) 11:03:55 145.860
POLYITAN 1 15 Dec 11:04:56 11:09:06 83° 255° (WSW) 11:13:20 437.675
Gurwin Techsat 1B 15 Dec 11:10:10 11:12:56 14° 56° (NE) 11:15:42 435.225
SPROUT 15 Dec 11:15:23 11:17:28 13° 90° (E) 11:19:33 437.525
AO-91 15 Dec 11:16:22 11:19:14 16° 64° (ENE) 11:21:58 145.960
EO-88 15 Dec 11:26:19 11:27:44 12° 298° (WNW) 11:29:08 145.990 - 145.960
QB50P2 15 Dec 11:31:04 11:34:59 38° 262° (W) 11:38:56 145.880/145.840
DUCHIFAT 1 15 Dec 11:34:48 11:38:50 50° 260° (W) 11:42:55 145.980
AIST 2D 15 Dec 11:35:59 11:36:47 11° 271° (W) 11:37:36 435.315
ISS 15 Dec 11:41:11 11:44:27 65° 147° (SSE) 11:47:44 437.550
LO-87 15 Dec 11:52:51 11:56:04 34° 289° (WNW) 11:59:18 145.935 - 145.965
AO-7 15 Dec 11:55:15 11:59:59 17° 41° (NE) 12:04:43 .
Oscar 19 15 Dec 11:59:15 12:04:08 45° 69° (ENE) 12:09:02 437.125/150
NANOSAT C BR1 15 Dec 12:02:36 12:05:56 23° 266° (W) 12:09:18 145.865
NO-84 15 Dec 12:10:23 12:13:58 52° 31° (NNE) 12:17:50 435.350 FM
BUGSAT 1 15 Dec 12:12:18 12:16:20 81° 257° (WSW) 12:20:23 437.445
VELOX 1 15 Dec 12:14:54 12:18:55 33° 97° (E) 12:22:54 145.980
YUBILEINY 15 Dec 12:16:05 12:23:04 25° 61° (ENE) 12:29:57 435.215
EO-79 15 Dec 12:19:42 12:22:00 14° 270° (W) 12:24:19 145.935-145.965
ESTCUBE 1 15 Dec 12:21:19 12:25:26 34° 292° (WNW) 12:29:31 437.505/2401.250
RS-15 15 Dec 12:28:49 12:37:00 21° 98° (E) 12:45:07 29.354- 29.394
nSIGHT-1 15 Dec 12:32:59 12:36:06 45° 340° (NNW) 12:39:13 .
Gurwin Techsat 1B 15 Dec 12:46:45 12:52:05 87° 73° (ENE) 12:57:27 435.225
SPROUT 15 Dec 12:49:33 12:53:45 61° 287° (WNW) 12:57:56 437.525
50 SAT 15 Dec 12:49:34 12:51:10 13° 92° (E) 12:52:44 437.505
AO-91 15 Dec 12:50:32 12:55:21 63° 258° (WSW) 12:59:43 145.960
UKube-1 15 Dec 12:52:50 12:54:12 11° 89° (E) 12:55:33 .
DX 1 15 Dec 13:08:20 13:12:02 27° 95° (E) 13:15:43 434.975-435.025
M-CUBED/EXP-1 PRIME 15 Dec 13:09:41 13:13:04 22° 57° (ENE) 13:16:33 437.505
ITAMSAT 1 15 Dec 13:15:16 13:18:24 16° 57° (ENE) 13:21:32 435.822/435.867
ISS 15 Dec 13:18:04 13:21:06 34° 346° (NNW) 13:24:10 437.550
Oscar 19 15 Dec 13:39:27 13:43:38 25° 267° (W) 13:47:51 437.125/150
AO-7 15 Dec 13:42:59 13:51:04 60° 64° (ENE) 13:59:13 .
NO-84 15 Dec 13:47:50 13:51:07 27° 227° (SW) 13:54:35 435.350 FM
VELOX 1 15 Dec 13:51:33 13:55:14 26° 294° (WNW) 13:58:53 145.980
nSIGHT-1 15 Dec 14:10:01 14:12:49 26° 360° (N) 14:15:36 .
YUBILEINY 15 Dec 14:12:07 14:20:59 82° 264° (W) 14:29:45 435.215
MOZHAYETS 4 15 Dec 14:18:32 14:22:12 23° 93° (E) 14:25:51
SO-50 15 Dec 14:18:36 14:21:59 21° 113° (ESE) 14:25:23 436.795
50 SAT 15 Dec 14:20:21 14:23:13 32° 289° (WNW) 14:26:04 437.505
UKube-1 15 Dec 14:26:24 14:30:43 74° 287° (WNW) 14:35:00 .
Gurwin Techsat 1B 15 Dec 14:30:16 14:32:44 13° 272° (W) 14:35:12 435.225
RS-15 15 Dec 14:35:10 14:47:27 77° 120° (ESE) 14:59:36 29.354- 29.394
M-CUBED/EXP-1 PRIME 15 Dec 14:42:48 14:47:03 50° 256° (WSW) 14:51:32 437.505
DX 1 15 Dec 14:44:22 14:48:13 31° 293° (WNW) 14:52:03 434.975-435.025
BEESAT 15 Dec 14:46:45 14:50:52 29° 95° (E) 14:54:59 436.000
ITAMSAT 1 15 Dec 14:51:59 14:57:12 81° 256° (WSW) 15:02:27 435.822/435.867
ISS 15 Dec 14:55:16 14:58:11 28° 6° (N) 15:01:05 437.550
ITUPSAT 1 15 Dec 15:15:20 15:20:01 52° 100° (E) 15:24:40 437.325
HO-68 15 Dec 15:27:27 15:28:45 11° 42° (NE) 15:30:03 435.675
AO-7 15 Dec 15:36:49 15:44:12 35° 264° (W) 15:51:40 .
DOVE 4 15 Dec 15:36:59 15:42:07 58° 72° (ENE) 15:47:07 437.250
CUBESAT XI-V 15 Dec 15:43:42 15:48:10 41° 98° (E) 15:52:35 437.345
nSIGHT-1 15 Dec 15:46:26 15:49:31 43° 19° (NNE) 15:52:38 .
MOZHAYETS 4 15 Dec 15:55:09 15:59:30 41° 290° (WNW) 16:03:50
SO-50 15 Dec 15:57:44 16:02:05 51° 311° (NW) 16:06:32 436.795
LilacSat-2 15 Dec 16:02:29 16:05:05 18° 65° (ENE) 16:07:41 437.200
KKS-1 15 Dec 16:03:02 16:04:43 12° 89° (E) 16:06:24 437.445
YUBILEINY 15 Dec 16:11:00 16:16:19 18° 285° (WNW) 16:21:36 435.215
XW-2D 15 Dec 16:15:01 16:18:01 22° 67° (ENE) 16:21:01 145.860 - 145.880
NUDT-PHONESAT 15 Dec 16:16:05 16:18:18 15° 64° (ENE) 16:20:31 437.300
KAITUO 1B 15 Dec 16:21:05 16:23:44 19° 65° (ENE) 16:26:24 145.475/437.950
BEESAT 15 Dec 16:24:21 16:28:40 35° 293° (WNW) 16:32:58 436.000
CUTE-I 15 Dec 16:25:06 16:29:50 33° 65° (ENE) 16:34:33 437.470
XW-2B 15 Dec 16:30:29 16:33:51 31° 70° (ENE) 16:37:15 145.730 - 145.750
ISS 15 Dec 16:31:45 16:35:03 69° 26° (NNE) 16:38:20 437.550
ITAMSAT 1 15 Dec 16:36:24 16:37:28 11° 273° (W) 16:38:33 435.822/435.867
XW-2F 15 Dec 16:41:28 16:45:00 39° 71° (ENE) 16:48:34 145.980 - 146.000
STARS 15 Dec 16:43:03 16:44:55 12° 89° (E) 16:46:47 437.465
O/OREOS (USA 219) 15 Dec 16:45:20 16:49:11 27° 55° (NE) 16:53:01 437.305
